FW6014 Weather Reports


Display with metric or nautical units.
time (UTC)temp
F
wind
direction
speed
MPH
gust
MPH
rain 1hr
in
rain 24hr
in
rain mn
in
humidity
%
barometer
mb
20260502190002 44 276 0.0 2.0 0.00 0.00 0.00 81 1013.6
20260502185902 44 276 0.0 3.0 0.00 0.00 0.00 80 1012.5
20260502185400 44 276 1.0 4.0 0.00 0.00 0.00 80 1012.6
20260502184900 44 276 1.0 4.0 0.00 0.00 0.00 79 1012.5
20260502184601 44 276 1.0 4.0 0.00 0.00 0.00 80 1013.6
20260502184401 44 276 1.0 2.0 0.00 0.00 0.00 80 1012.5
20260502183901 44 276 0.0 2.0 0.00 0.00 0.00 80 1012.4
20260502183004 43 276 0.0 3.0 0.00 0.00 0.00 82 1013.5
20260502182904 43 276 1.0 7.0 0.00 0.00 0.00 82 1012.5
20260502182402 43 276 2.0 7.0 0.00 0.00 0.00 82 1012.6
20260502181608 43 276 1.0 5.0 0.00 0.00 0.00 82 1013.7
20260502180841 43 276 0.0 1.0 0.00 0.00 0.00 83 1012.7
20260502180342 43 276 0.0 1.0 0.00 0.00 0.00 84 1012.8
20260502180157 42 276 0.0 1.0 0.00 0.00 0.00 83 1013.7
20260502170329 43 276 0.0 1.0 0.00 0.00 0.00 81 1012.7
20260502170125 42 276 0.0 2.0 0.00 0.00 0.00 80 1013.6
20260502164327 43 276 0.0 1.0 0.00 0.00 0.00 80 1012.9
20260502163827 43 276 0.0 2.0 0.00 0.00 0.00 82 1012.9
20260502163326 43 276 0.0 2.0 0.00 0.00 0.00 80 1012.9
20260502163116 42 276 0.0 2.0 0.00 0.00 0.00 80 1013.9
20260502162825 43 276 0.0 2.0 0.00 0.00 0.00 79 1013.0
20260502161619 42 276 0.0 3.0 0.00 0.00 0.00 80 1014.0
20260502160826 42 276 1.0 4.0 0.00 0.00 0.00 79 1013.1
20260502160325 42 276 0.0 2.0 0.00 0.00 0.00 79 1013.2
20260502151825 43 276 1.0 5.0 0.00 0.00 0.00 79 1013.5
20260502151507 42 276 0.0 0.0 0.00 0.00 0.00 81 1014.5
20260502151326 43 276 0.0 0.0 0.00 0.00 0.00 80 1013.4
20260502150325 43 276 0.0 1.0 0.00 0.00 0.00 80 1013.5
20260502150110 42 276 0.0 1.0 0.00 0.00 0.00 81 1014.4
20260502123802 39 276 0.0 0.0 0.00 0.00 0.00 86 1014.3
20260502123301 38 276 0.0 0.0 0.00 0.00 0.00 86 1014.3
20260502123045 38 276 0.0 0.0 0.00 0.00 0.00 86 1015.2
20260502122801 38 276 0.0 0.0 0.00 0.00 0.00 86 1014.2
20260502122302 38 276 0.0 0.0 0.00 0.00 0.00 86 1014.2
20260502121802 38 276 0.0 0.0 0.00 0.00 0.00 86 1014.2
20260502121613 37 276 0.0 0.0 0.00 0.00 0.00 87 1015.1
20260502121301 38 276 0.0 0.0 0.00 0.00 0.00 87 1014.2
20260502120803 38 276 0.0 0.0 0.00 0.00 0.00 88 1014.1
20260502115803 37 276 0.0 0.0 0.00 0.00 0.00 88 1014.0
20260502115305 37 276 0.0 0.0 0.00 0.00 0.00 87 1014.1
20260502114806 37 278 0.0 0.0 0.00 0.00 0.00 88 1014.2
20260502114608 37 278 0.0 0.0 0.00 0.00 0.00 88 1015.0
20260502114302 37 278 0.0 0.0 0.00 0.00 0.00 88 1014.1
20260502113805 37 278 0.0 0.0 0.00 0.00 0.00 88 1014.1
20260502113159 36 278 0.0 0.0 0.00 0.00 0.00 88 1015.0
20260502112803 37 278 0.0 0.0 0.00 0.00 0.00 88 1014.1
20260502112301 36 278 0.0 0.0 0.00 0.00 0.00 88 1014.1
20260502111804 36 278 0.0 0.0 0.00 0.00 0.00 88 1014.0
20260502111531 36 278 0.0 0.0 0.00 0.00 0.00 88 1015.0
20260502110805 36 278 0.0 0.0 0.00 0.00 0.00 87 1014.2
20260502110300 36 278 0.0 0.0 0.00 0.00 0.00 86 1014.2
20260502110001 35 278 0.0 0.0 0.00 0.00 0.00 86 1015.1
20260502105805 36 278 0.0 0.0 0.00 0.00 0.00 85 1014.3
20260502104808 35 278 0.0 0.0 0.00 0.00 0.00 84 1014.4
20260502104559 35 278 0.0 0.0 0.00 0.00 0.00 84 1015.2
20260502104303 35 278 0.0 0.0 0.00 0.00 0.00 84 1014.3
20260502103801 35 278 0.0 0.0 0.00 0.00 0.00 84 1014.2
20260502103301 35 278 0.0 0.0 0.00 0.00 0.00 84 1014.2
20260502103152 34 278 0.0 0.0 0.00 0.00 0.00 84 1015.0
20260502102806 35 278 0.0 0.0 0.00 0.00 0.00 84 1014.1
20260502102305 34 278 0.0 0.0 0.00 0.00 0.00 86 1014.0
20260502101803 34 278 0.0 0.0 0.00 0.00 0.00 87 1013.9
20260502101542 34 278 0.0 0.0 0.00 0.00 0.00 87 1014.7
20260502101302 34 278 0.0 0.0 0.00 0.00 0.00 87 1013.8
20260502100802 34 278 0.0 0.0 0.00 0.00 0.00 87 1013.5
20260502100301 34 278 0.0 0.0 0.00 0.00 0.00 87 1013.3
20260502100131 33 278 0.0 0.0 0.00 0.00 0.00 87 1014.2
20260502091503 33 278 0.0 1.0 0.00 0.00 0.00 90 1013.5
20260502091302 33 278 0.0 0.0 0.00 0.00 0.00 89 1012.6
20260502090803 33 278 0.0 1.0 0.00 0.00 0.00 88 1012.6
20260502090302 34 278 0.0 1.0 0.00 0.00 0.00 88 1012.7
20260502080110 34 278 0.0 0.0 0.00 0.00 0.00 84 1014.7
20260502071302 33 278 0.0 0.0 0.00 0.00 0.00 86 1013.2
20260502070801 32 278 0.0 0.0 0.00 0.00 0.00 86 1013.2
20260502070302 32 278 0.0 0.0 0.00 0.00 0.00 85 1013.1
20260502070031 32 278 0.0 0.0 0.00 0.00 0.00 84 1013.8
20260502065802 32 278 0.0 0.0 0.00 0.00 0.00 84 1012.8
20260502065305 32 278 0.0 0.0 0.00 0.00 0.00 85 1012.8
20260502064802 32 278 0.0 0.0 0.00 0.00 0.00 84 1012.6
20260502064632 32 278 0.0 0.0 0.00 0.00 0.00 84 1013.5
20260502064302 33 278 0.0 0.0 0.00 0.00 0.00 84 1012.6
20260502063803 33 278 0.0 0.0 0.00 0.00 0.00 83 1012.5
20260502063303 32 278 0.0 0.0 0.00 0.00 0.00 84 1012.6
20260502063033 32 278 0.0 0.0 0.00 0.00 0.00 85 1013.4
20260502062801 32 278 0.0 0.0 0.00 0.00 0.00 84 1012.6
20260502062305 32 278 0.0 0.0 0.00 0.00 0.00 84 1012.5
20260502061802 33 278 0.0 0.0 0.00 0.00 0.00 83 1012.4
20260502061623 33 278 0.0 0.0 0.00 0.00 0.00 83 1013.2
20260502061300 33 278 0.0 0.0 0.00 0.00 0.00 82 1012.4
20260502060801 32 278 0.0 0.0 0.00 0.00 0.00 85 1012.6
20260502060300 32 278 0.0 0.0 0.00 0.00 0.00 84 1012.6
20260502060017 32 278 0.0 0.0 0.00 0.00 0.00 84 1013.3
20260502055802 32 278 0.0 0.0 0.00 0.00 0.00 84 1012.6
20260502055305 33 278 0.0 0.0 0.00 0.00 0.00 83 1012.6
20260502054801 33 278 0.0 0.0 0.00 0.00 0.00 82 1012.6
20260502054534 33 278 0.0 0.0 0.00 0.00 0.00 80 1013.4
20260502053801 34 278 0.0 0.0 0.00 0.00 0.00 81 1012.5
20260502053159 33 278 0.0 0.0 0.00 0.00 0.00 81 1013.4
20260502052804 34 278 0.0 0.0 0.00 0.00 0.00 79 1012.6
20260502052301 34 278 0.0 0.0 0.00 0.00 0.00 80 1012.6
20260502051601 33 278 0.0 0.0 0.00 0.00 0.00 82 1013.6
20260502051300 33 278 0.0 0.0 0.00 0.00 0.00 81 1012.7
20260502050803 33 278 0.0 0.0 0.00 0.00 0.00 81 1012.7
20260502050302 33 278 0.0 0.0 0.00 0.00 0.00 81 1012.8
20260502050043 33 278 0.0 0.0 0.00 0.00 0.00 78 1013.7
20260502045301 33 278 0.0 0.0 0.00 0.00 0.00 79 1012.8
20260502044801 33 278 0.0 0.0 0.00 0.00 0.00 81 1012.8
20260502044545 33 278 0.0 0.0 0.00 0.00 0.00 81 1013.5
20260502044302 33 278 0.0 0.0 0.00 0.00 0.00 81 1012.6
20260502043803 34 278 0.0 0.0 0.00 0.00 0.00 80 1012.6
20260502043301 34 278 0.0 0.0 0.00 0.00 0.00 79 1012.6
20260502043038 33 278 0.0 0.0 0.00 0.00 0.00 80 1013.3
20260502042301 34 278 0.0 0.0 0.00 0.00 0.00 78 1012.5
20260502041530 34 278 0.0 0.0 0.00 0.00 0.00 79 1013.2
20260502041258 34 278 0.0 0.0 0.00 0.00 0.00 79 1012.5
20260502040757 34 278 0.0 0.0 0.00 0.00 0.00 80 1012.4
20260502040256 34 278 0.0 0.0 0.00 0.00 0.00 81 1012.4
20260502040124 34 278 0.0 0.0 0.00 0.00 0.00 82 1013.2
20260502035757 34 278 0.0 0.0 0.00 0.00 0.00 81 1012.4
20260502035257 35 278 0.0 0.0 0.00 0.00 0.00 80 1012.3
20260502034757 35 278 0.0 0.0 0.00 0.00 0.00 77 1012.3
20260502034524 35 278 0.0 0.0 0.00 0.00 0.00 76 1013.1
20260502034256 36 278 0.0 0.0 0.00 0.00 0.00 75 1012.4
20260502033256 36 278 0.0 0.0 0.00 0.00 0.00 70 1012.4
20260502033124 36 278 0.0 0.0 0.00 0.00 0.00 74 1013.2
20260502032755 36 278 0.0 0.0 0.00 0.00 0.00 73 1012.5
20260502032253 36 278 0.0 0.0 0.00 0.00 0.00 77 1012.5
20260502031754 36 278 0.0 0.0 0.00 0.00 0.00 74 1012.5
20260502031520 36 278 0.0 0.0 0.00 0.00 0.00 75 1013.3
20260502031255 36 278 0.0 0.0 0.00 0.00 0.00 74 1012.6
20260502030256 37 278 0.0 0.0 0.00 0.00 0.00 77 1012.4
20260502030118 37 278 0.0 0.0 0.00 0.00 0.00 76 1013.1
20260502025754 37 278 0.0 0.0 0.00 0.00 0.00 73 1012.3
20260502025255 38 278 0.0 0.0 0.00 0.00 0.00 71 1012.4
20260502024517 37 278 0.0 0.0 0.00 0.00 0.00 73 1013.1
20260502023754 38 278 0.0 0.0 0.00 0.00 0.00 72 1012.4
20260502023257 37 278 0.0 0.0 0.00 0.00 0.00 77 1012.4
20260502023114 37 278 0.0 0.0 0.00 0.00 0.00 79 1013.2
20260502022754 37 278 0.0 0.0 0.00 0.00 0.00 76 1012.4
20260502022254 38 278 0.0 0.0 0.00 0.00 0.00 76 1012.3
20260502021753 38 278 0.0 0.0 0.00 0.00 0.00 73 1012.4
20260502021510 38 278 0.0 0.0 0.00 0.00 0.00 77 1013.2
20260502021253 38 278 0.0 0.0 0.00 0.00 0.00 76 1012.4
20260502020753 38 278 0.0 0.0 0.00 0.00 0.00 74 1012.5
20260502020254 39 278 0.0 0.0 0.00 0.00 0.00 74 1012.5
20260502020113 38 278 0.0 0.0 0.00 0.00 0.00 73 1013.2
20260502015752 39 278 0.0 0.0 0.00 0.00 0.00 74 1012.5
20260502015253 40 278 0.0 0.0 0.00 0.00 0.00 68 1012.5
20260502014747 40 278 0.0 0.0 0.00 0.00 0.00 70 1012.4
20260502014503 40 278 0.0 0.0 0.00 0.00 0.00 67 1013.1
20260502014247 41 278 0.0 0.0 0.00 0.00 0.00 69 1012.4
20260502013749 41 278 0.0 0.0 0.00 0.00 0.00 65 1012.3
20260502013248 41 278 0.0 0.0 0.00 0.00 0.00 66 1012.3
20260502013105 41 278 0.0 0.0 0.00 0.00 0.00 70 1013.0
20260502012747 41 278 0.0 0.0 0.00 0.00 0.00 68 1012.3
20260502011749 42 278 0.0 0.0 0.00 0.00 0.00 61 1012.3
20260502011247 42 278 0.0 0.0 0.00 0.00 0.00 63 1012.2
20260502010744 42 278 0.0 0.0 0.00 0.00 0.00 63 1012.2
20260502010242 43 278 0.0 0.0 0.00 0.00 0.00 63 1012.2
20260502010052 43 278 0.0 0.0 0.00 0.00 0.00 64 1012.8
20260502005739 44 278 0.0 0.0 0.00 0.00 0.00 58 1012.0
20260502005238 44 278 0.0 0.0 0.00 0.00 0.00 54 1011.9
20260502004737 44 278 0.0 0.0 0.00 0.00 0.00 54 1011.8
20260502004646 44 278 0.0 0.0 0.00 0.00 0.00 54 1012.5
20260502004233 45 278 0.0 0.0 0.00 0.00 0.00 54 1011.8
20260502003732 45 278 0.0 0.0 0.00 0.00 0.00 54 1011.7
20260502003031 45 278 0.0 0.0 0.00 0.00 0.00 50 1012.4
20260502002729 46 278 0.0 0.0 0.00 0.00 0.00 56 1011.7
20260502002230 46 278 0.0 0.0 0.00 0.00 0.00 52 1011.6
20260502001630 46 278 0.0 0.0 0.00 0.00 0.00 48 1012.2
20260502001231 47 278 0.0 1.0 0.00 0.00 0.00 44 1011.5
20260502000729 47 278 0.0 1.0 0.00 0.00 0.00 42 1011.5
20260502000230 48 278 0.0 1.0 0.00 0.00 0.00 42 1011.4
20260502000032 47 278 0.0 1.0 0.00 0.00 0.00 46 1011.9
20260501235231 49 278 0.0 2.0 0.00 0.00 0.00 39 1011.3
20260501234629 48 278 0.0 1.0 0.00 0.00 0.00 40 1011.8
20260501234230 49 278 0.0 1.0 0.00 0.00 0.00 40 1011.1
20260501233729 50 278 0.0 3.0 0.00 0.00 0.00 39 1011.1
20260501233229 50 278 0.0 3.0 0.00 0.00 0.00 37 1011.0
20260501233016 50 278 0.0 3.0 0.00 0.01 0.00 36 1011.5
20260501232729 51 278 0.0 2.0 0.00 0.00 0.00 37 1010.8
20260501232229 51 278 0.0 2.0 0.00 0.00 0.00 37 1010.8
20260501231730 51 278 0.0 2.0 0.00 0.00 0.00 37 1010.7
20260501231501 51 278 0.0 2.0 0.00 0.01 0.00 37 1011.3
20260501230230 52 278 0.0 2.0 0.00 0.00 0.00 36 1010.5
20260501230156 52 278 0.0 2.0 0.00 0.01 0.00 36 1011.1
20260501225729 52 278 1.0 3.0 0.00 0.00 0.00 37 1010.3
20260501225230 53 278 1.0 3.0 0.00 0.00 0.00 38 1010.3
20260501224730 53 278 1.0 3.0 0.00 0.00 0.00 34 1010.3
20260501224555 53 278 0.0 3.0 0.00 0.01 0.00 35 1010.9
20260501224229 53 278 1.0 3.0 0.00 0.00 0.00 34 1010.2
20260501223729 53 278 1.0 4.0 0.00 0.00 0.00 34 1010.3
20260501223230 53 278 1.0 4.0 0.00 0.00 0.00 34 1010.2
20260501223158 53 278 1.0 4.0 0.00 0.02 0.00 34 1010.9
20260501222729 54 278 1.0 3.0 0.00 0.00 0.00 35 1010.1
20260501222229 54 278 1.0 3.0 0.00 0.01 0.00 34 1010.0
20260501221729 54 278 2.0 4.0 0.00 0.01 0.00 35 1009.9
20260501221557 54 278 1.0 4.0 0.00 0.02 0.00 34 1010.6
20260501220729 55 278 1.0 2.0 0.00 0.01 0.00 35 1009.8
20260501220140 55 278 0.0 4.0 0.00 0.02 0.00 34 1010.4
20260501215730 55 278 1.0 4.0 0.00 0.01 0.00 34 1009.7
20260501215230 55 278 1.0 4.0 0.00 0.01 0.00 33 1009.6
20260501214541 56 278 0.0 3.0 0.00 0.02 0.00 33 1010.3
20260501213730 56 278 2.0 5.0 0.00 0.01 0.00 31 1009.4
20260501213229 56 278 2.0 5.0 0.00 0.01 0.00 34 1009.6
20260501213125 56 278 2.0 5.0 0.00 0.02 0.00 33 1010.3
20260501212730 56 278 2.0 5.0 0.00 0.01 0.00 32 1009.4
20260501212230 56 278 2.0 5.0 0.00 0.01 0.00 33 1009.3
20260501211731 57 278 2.0 5.0 0.00 0.02 0.00 32 1009.3
20260501211517 57 278 1.0 6.0 0.00 0.02 0.00 34 1010.2
20260501211229 57 278 2.0 6.0 0.00 0.02 0.00 33 1009.1
20260501210730 57 278 2.0 6.0 0.00 0.02 0.00 32 1009.2
20260501210228 57 278 2.0 5.0 0.00 0.02 0.00 34 1009.2
20260501210112 57 278 1.0 5.0 0.00 0.02 0.00 32 1010.0
20260501205730 58 278 2.0 5.0 0.00 0.02 0.00 35 1009.2
20260501205230 58 278 2.0 5.0 0.00 0.02 0.00 31 1009.1
20260501204729 58 278 2.0 5.0 0.00 0.02 0.00 33 1009.1
20260501204505 57 278 2.0 5.0 0.00 0.02 0.00 33 1010.0
20260501204228 58 278 2.0 5.0 0.00 0.02 0.00 32 1009.2
20260501203730 58 278 2.0 5.0 0.00 0.02 0.00 34 1009.1
20260501203229 58 278 2.0 6.0 0.00 0.02 0.00 34 1009.2
20260501203108 58 278 1.0 6.0 0.00 0.09 0.00 34 1009.9
20260501202729 58 278 2.0 7.0 0.00 0.02 0.00 36 1009.1
20260501202230 59 278 2.0 7.0 0.00 0.02 0.00 34 1008.9
20260501201502 58 278 0.0 6.0 0.00 0.09 0.00 36 1009.6
20260501201227 59 278 2.0 6.0 0.00 0.02 0.00 34 1008.9
20260501200227 59 278 2.0 5.0 0.00 0.02 0.00 33 1009.0
20260501195728 59 278 2.0 5.0 0.00 0.02 0.00 34 1009.0
20260501194726 59 278 2.0 8.0 0.00 0.02 0.00 37 1009.0
20260501194508 58 278 2.0 8.0 0.00 0.09 0.00 35 1009.7
20260501194216 58 278 2.0 5.0 0.00 0.02 0.00 37 1008.9
20260501193709 59 278 2.0 6.0 0.00 0.02 0.00 34 1008.9
20260501193202 58 278 2.0 6.0 0.00 0.02 0.00 35 1008.9
20260501193056 58 278 2.0 6.0 0.00 0.22 0.00 36 1009.7
20260501192701 58 278 2.0 6.0 0.00 0.02 0.00 35 1008.8
20260501192201 58 278 2.0 8.0 0.00 0.02 0.00 37 1008.7
20260501191701 58 278 2.0 8.0 0.00 0.03 0.00 38 1008.8
20260501191658 57 278 1.0 8.0 0.00 0.22 0.00 38 1009.7
20260501191202 58 278 2.0 5.0 0.00 0.03 0.00 41 1008.9
20260501190701 58 278 2.0 4.0 0.00 0.04 0.00 40 1009.0